Regional Weather Roundup
Issued by NWS Green Bay, WI

Home | Current Version | Previous Version | Text Only | Print | Product List | Glossary On
Versions: 1 2 3 4 5 6 7 8 9 10 11 12 13 14 15 16 17 18 19 20 21 22 23 24 25 26 27 28 29 30 31 32 33 34 35 36 37 38 39 40 41 42 43 44 45 46 47 48 49 50
000
ASUS43 KGRB 180810
RWRGRB

NORTH-CENTRAL AND NORTHEAST WISCONSIN REGIONAL WEATHER ROUNDUP
NATIONAL WEATHER SERVICE GREEN BAY WI
300 AM CDT SAT APR 18 2015

WIZ005-009-010>012-018-019-180900-
NORTH CENTRAL WISCONSIN

CITY           SKY/WX    TMP DP  RH WIND       PRES   REMARKS
IRONWOOD       CLEAR     45  32  61 NE14G20   30.12R
MANITOWISH WTR CLEAR     45  32  59 NE12G18   30.11R
ARBOR VITAE    CLEAR     49  32  51 NE12      30.10R
EAGLE RIVER    CLEAR     46  28  49 N9        30.09R
LAND O LAKES   CLEAR     46  32  58 N12       30.11R
RHINELANDER    CLEAR     49  28  44 NE10      30.09R
PHILLIPS       CLEAR     48  29  48 CALM      30.09R
ANTIGO         CLEAR     48  32  53 NE10      30.06R
TOMAHAWK       CLEAR     46  28  50 CALM      30.08R
MERRILL        CLEAR     50  30  46 NE10      30.06R
$$

WIZ013-073-180900-
NORTHEAST WISCONSIN

CITY           SKY/WX    TMP DP  RH WIND       PRES   REMARKS
IRON MOUNTAIN  CLEAR     48  32  53 N10       30.07R
MARINETTE      CLEAR     43  36  75 N9        30.03R
OCONTO         CLEAR     36  36 100 CALM      30.01R
$$

WIZ017-030-035>037-045-180900-
CENTRAL WISCONSIN

CITY           SKY/WX    TMP DP  RH WIND       PRES   REMARKS
MEDFORD        CLEAR     47  30  51 NE10      30.06R
WAUSAU         CLEAR     49  38  65 N6        30.03R
MOSINEE        NOT AVBL
MARSHFIELD     CLEAR     50  33  52 NW6       30.04R
WISC RAPIDS    PTCLDY    45  35  68 CALM      30.04S
STEVENS POINT  CLEAR     38  37  94 CALM      30.04R
WAUPACA        CLEAR     46  41  85 CALM      30.02R
SHAWANO        CLEAR     46  43  88 CALM      30.02R
CLINTONVILLE   CLEAR     45  37  76 NW3       30.01S
$$

WIZ038-039-048-051-180900-
FOX VALLEY

CITY           SKY/WX    TMP DP  RH WIND       PRES   REMARKS
NWS GREEN BAY  CLEAR     49  43  80 CALM      30.01R
APPLETON       PTCLDY    54  36  50 NW8       30.01R
OSHKOSH        MOCLDY    55  42  61 W8        30.01R
FOND DU LAC    MOCLDY    48  42  80 S3        30.01R
$$

WIZ022-050-052-180900-
EAST CENTRAL WISCONSIN

CITY           SKY/WX    TMP DP  RH WIND       PRES   REMARKS
STURGEON BAY   CLEAR     43  36  75 W3        30.02R
MANITOWOC      PTCLDY    54  43  66 NW5       30.00R
SHEBOYGAN      MOCLDY    51  42  71 W3        30.00S
$$

LMZ563-521-522-541>543-180900-
LAKESHORE

STATION/POSITION TIME  TEMP    WIND        PRES    VSBY  WAVE
                       AIR SEA DIR/SP/G                  HT/PER
                 (UTC) (F)     (DEG/KT/KT) (MB)    (MI)  (FT/S)
SHEBOYGAN LKSHOR 0800   59     280/  9/ 11 1016.2R
KEWAUNEE LKSHORE 0800   47      CALM  /  1 1015.0S
NORTHPORT PIER   0800   39     310/ 12/ 14 1016.9R
SISTER BAY LKSHO 0700   42        CALM       N/A
CHAMBERS ISLAND  0800   43     300/  6/ 25 1016.9R
MENOMINEE LKSHOR 0800   45     310/ 13/ 14 1017.2R
$$



USA.gov is the U.S. government's official web portal to all federal, state and local government web resources and services.